Wetbulb
9.80 11.58 12.04 10.58 8.86 8.24 5.01 7.00 5.18 5.86 4.96 9.15 12.13 13.40 15.65 18.28 19.49 19.49 19.76 20.48 20.73 20.73 21.47 21.96 22.18 22.22 23.64 23.46 24.74 26.23 26.96 27.28 28.03 30.22 32.56 35.02 37.06 39.55 42.61 44.95 46.82 49.11 50.40 51.63
9.63 13.58 12.41 9.27 10.10 9.86 7.89 7.42 7.63 7.70 5.85 13.84 15.51 16.36 14.61 15.45 16.60 16.99 17.95 19.20 20.25 20.80 20.91 20.83 21.37 22.38 23.16 23.46 24.49 25.78 25.41 25.47 27.06 28.31 30.08 31.50 33.61 36.79 39.51 41.60 43.50 46.48 49.09 50.10
6.83 11.93 11.66 6.03 6.46 8.59 8.55 9.26 8.53 5.30 8.21 13.43 13.02 13.40 13.14 14.06 15.51 15.35 16.50 17.73 18.98 19.53 20.49 21.11 21.13 21.93 22.69 23.72 24.92 24.99 24.77 25.60 25.38 27.02 27.74 29.38 31.66 34.28 36.02 38.05 40.59 42.46 45.30 47.31
6.94 10.47 -0.22 7.86 14.04 12.10 9.63 9.49 11.05 10.40 11.25 12.51 13.22 15.08 15.05 16.35 15.44 15.67 15.78 16.55 17.62 19.13 19.92 21.25 22.28 22.22 23.66 24.12 23.78 23.68 23.77 24.03 25.18 25.87 26.52 28.26 30.41 31.74 33.45 35.49 37.76 40.50 42.70 44.38
4.44 5.58 7.02 8.72 10.56 8.33 7.15 6.75 11.45 10.39 12.28 13.23 14.60 15.13 14.72 16.24 17.02 16.73 16.58 17.42 18.13 19.57 20.01 21.09 21.63 22.35 23.24 23.35 23.69 23.06 22.39 22.94 24.01 25.06 25.56 27.07 28.52 29.34 31.36 32.67 34.95 37.69 40.86 42.86
7.23 1.48 -0.41 6.96 12.45 14.65 13.34 4.58 12.50 12.49 11.94 11.80 13.61 9.77 11.53 16.10 17.52 17.78 18.61 18.91 18.19 18.64 19.97 20.38 20.70 21.75 21.91 22.04 22.23 21.05 21.95 22.93 24.65 25.07 25.31 26.41 27.46 28.38 30.39 31.96 33.39 35.68 37.82 41.79
7.41 4.75 6.88 12.23 13.57 14.94 2.66 3.94 13.27 13.04 12.72 11.98 10.23 12.49 14.92 17.15 17.29 18.32 18.20 18.23 19.49 19.67 18.80 19.31 20.32 20.38 19.94 20.72 19.44 21.26 22.66 23.77 24.43 25.17 25.50 27.08 27.08 28.70 29.62 30.36 32.19 34.21 36.73 39.92
8.39 3.97 0.64 14.43 12.61 6.11 10.47 13.85 13.75 13.36 13.09 12.03 13.48 14.33 15.13 16.06 16.19 16.53 16.64 17.50 18.34 17.88 18.22 19.52 19.75 19.07 18.65 18.78 20.39 21.51 21.94 22.85 23.56 24.54 25.79 26.71 26.10 27.50 28.39 29.72 30.68 32.99 35.82 37.90
6.90 8.88 14.23 15.28 13.20 14.65 12.56 11.48 13.98 12.86 13.84 13.64 12.72 13.62 14.70 14.89 15.44 15.84 16.26 17.02 18.20 17.53 17.70 19.07 19.27 18.72 17.05 18.33 19.98 20.30 20.94 21.70 22.47 23.73 25.51 25.40 25.21 25.43 26.23 28.43 29.62 30.96 32.52 33.68
6.63 12.20 12.80 14.23 14.96 14.14 12.64 12.01 14.26 13.79 12.58 13.36 12.19 13.68 13.88 14.70 15.00 15.41 16.09 15.87 17.18 16.97 16.50 16.72 18.44 18.51 18.11 18.81 19.57 19.43 19.70 20.75 21.64 22.31 23.81 24.13 25.34 25.50 25.37 26.59 27.15 28.06 28.63 29.36
9.11 13.18 13.35 13.80 14.45 15.48 13.73 12.16 10.61 11.02 10.33 10.56 11.70 11.62 12.73 12.82 14.01 14.90 15.25 15.94 16.15 15.52 15.58 15.83 17.32 17.35 18.39 18.63 18.70 18.07 19.07 20.42 20.73 21.73 21.65 22.54 23.64 24.05 24.39 26.15 26.82 25.72 26.57 27.63
9.12 14.37 13.89 14.75 15.25 11.67 7.57 7.28 8.16 8.16 9.38 11.02 10.45 8.37 11.54 12.00 12.55 12.58 12.11 13.40 13.88 14.52 14.67 15.18 15.65 15.76 16.93 18.13 17.77 17.17 17.62 19.17 19.96 20.23 20.46 21.69 21.47 22.59 26.66 26.13 26.85 27.13 28.32 28.25
14.50 9.92 11.78 12.01 9.61 11.27 10.04 9.24 10.07 6.71 6.62 7.40 8.87 7.27 9.35 10.69 12.46 13.90 15.17 13.91 11.44 9.96 11.08 12.24 13.23 14.13 16.24 17.13 16.93 16.54 16.95 17.58 18.98 19.63 19.56 19.01 19.62 20.81 20.09 24.39 26.90 26.46 26.39 26.85
9.68 7.10 8.52 9.71 11.54 5.38 4.69 4.80 6.71 6.29 5.27 6.24 6.84 8.59 7.37 6.32 8.28 7.79 8.12 10.48 10.89 9.97 10.35 11.33 12.18 12.58 15.39 16.35 15.83 15.27 16.25 18.56 18.38 18.91 19.36 18.37 18.79 19.10 20.13 20.30 19.79 21.80 25.42 25.86
7.04 5.48 9.43 4.74 4.24 3.05 1.91 2.38 3.46 4.42 6.87 8.02 7.77 5.27 6.49 5.70 6.36 7.55 9.65 10.03 10.63 10.39 10.91 11.97 12.34 13.06 15.78 15.46 14.83 14.66 15.90 17.26 17.97 18.77 19.42 18.42 17.96 18.33 19.09 19.41 19.24 19.63 21.44 23.84
11.24 7.35 5.27 3.37 4.79 6.22 7.60 6.91 5.95 7.34 11.12 12.64 14.00 15.02 14.55 12.61 11.08 11.86 13.76 14.37 11.51 14.07 13.80 13.45 14.42 16.12 16.11 14.17 14.41 15.18 15.70 18.33 19.61 18.65 18.59 16.82 16.66 16.49 17.32 17.26 17.28 17.94 18.75 19.69
9.15 11.59 12.79 11.16 11.54 12.48 13.18 14.25 13.50 14.19 15.92 16.58 17.05 18.21 18.02 17.18 16.64 16.38 16.60 17.31 17.00 15.33 13.77 14.05 14.12 16.75 16.84 16.23 15.24 15.76 16.59 17.23 19.41 18.49 17.68 16.55 15.82 15.50 16.56 15.66 15.84 16.45 17.57 19.82
12.48 13.28 13.69 13.57 13.05 13.76 15.23 17.23 17.28 17.30 16.86 18.13 18.57 18.03 16.94 16.01 15.16 15.64 16.07 16.57 16.16 15.59 16.11 16.38 16.35 16.45 16.37 16.41 16.47 16.76 17.03 17.63 17.63 16.93 17.28 16.30 15.77 16.47 15.57 15.14 15.05 15.20 16.51 18.04
16.21 15.10 15.47 15.63 15.74 15.13 15.00 15.46 16.56 17.67 18.03 18.15 17.74 16.65 17.05 16.77 16.20 15.83 16.11 14.68 13.71 13.02 15.25 17.47 17.48 17.48 16.79 17.95 18.98 17.65 17.24 17.05 17.16 17.23 17.18 17.20 16.28 15.57 14.90 14.81 14.40 14.61 15.22 15.77
15.48 16.02 15.94 15.78 16.84 16.16 15.26 16.58 17.01 16.33 17.42 17.94 17.42 15.94 14.89 15.27 15.70 14.97 14.83 13.19 14.38 15.33 16.64 16.59 16.64 16.11 16.49 17.18 19.13 17.77 17.59 17.57 16.93 16.92 16.67 16.19 15.28 15.28 14.63 14.99 14.39 13.74 13.80 14.45
14.50 14.62 14.34 14.83 15.04 16.28 16.81 17.45 16.90 16.38 17.12 16.26 15.06 14.42 14.38 14.86 14.81 14.11 12.02 11.10 14.63 16.84 16.39 17.12 16.93 16.99 17.71 18.11 18.10 17.20 16.98 16.95 16.82 16.32 15.93 15.78 15.55 15.23 14.20 13.74 13.46 13.23 13.01 13.39
13.39 13.00 13.14 14.21 14.29 14.49 15.10 15.05 14.90 14.64 14.32 14.05 14.01 13.45 12.51 11.88 12.32 12.55 13.53 12.17 14.57 17.08 16.22 15.89 16.48 17.61 17.52 19.19 17.76 17.16 16.93 16.85 16.75 16.73 16.36 15.80 15.17 14.31 13.80 13.62 12.98 13.24 13.06 12.78
12.74 13.16 13.76 13.38 12.74 12.48 13.07 13.06 12.66 12.50 11.95 12.04 11.63 11.44 11.04 11.59 12.15 9.97 8.97 14.34 15.14 15.30 15.33 15.45 17.40 19.28 20.15 18.77 18.22 16.82 16.78 17.14 17.19 18.06 17.48 16.22 15.37 14.47 13.63 13.18 13.13 13.20 12.60 12.58
13.55 13.44 12.69 13.03 12.08 11.11 9.73 11.58 11.29 11.33 11.06 11.01 10.96 11.50 10.71 9.69 10.98 13.41 13.73 14.75 15.44 15.27 14.27 15.33 16.91 18.82 19.66 17.53 14.95 13.72 13.43 13.75 14.10 14.94 15.30 17.09 15.45 14.22 13.20 12.97 12.45 12.76 12.48 12.40
12.74 11.65 10.92 9.96 9.39 10.27 10.36 10.71 9.78 10.13 10.30 10.33 10.76 11.47 11.75 12.26 10.08 11.18 11.75 11.90 14.01 13.85 12.28 14.83 16.85 17.52 15.33 12.63 11.69 11.60 11.55 11.82 12.42 13.39 13.71 14.08 13.91 13.32 13.24 13.09 12.49 12.26 12.04 11.70
11.58 11.19 11.30 11.22 10.57 10.10 9.96 9.81 8.79 10.47 10.38 9.41 10.39 11.07 11.24 11.67 11.35 11.83 11.43 11.86 11.39 12.26 11.79 11.64 11.07 10.80 10.45 10.35 10.27 10.42 10.51 10.40 10.95 10.91 12.14 12.50 13.49 13.63 13.02 12.74 12.60 12.33 11.95 11.95
10.98 12.23 10.96 10.10 10.67 10.01 9.55 9.64 9.81 8.52 9.48 8.78 7.80 9.78 10.70 11.25 10.65 11.05 11.32 9.92 9.55 9.36 9.32 9.37 9.35 9.65 9.27 9.11 9.20 9.43 9.71 9.86 11.12 10.26 10.40 10.33 10.42 10.30 10.84 11.89 12.48 12.49 12.45 11.79
MSLP
1027.19 1027.29 1027.32 1027.40 1027.68 1027.88 1027.89 1027.51 1026.88 1027.41 1027.88 1028.57 1028.92 1028.84 1028.66 1028.37 1028.08 1027.82 1027.63 1027.60 1027.58 1027.52 1027.79 1028.35 1025.82 1025.98 1027.80 1024.85 1025.81 1024.97 1024.64 1024.08 1024.10 1023.27 1023.08 1023.69 1022.34 1021.99 1022.04 1021.98 1021.85 1021.66 1021.60 1021.68
1026.47 1026.64 1027.16 1027.39 1028.19 1028.43 1028.83 1028.95 1028.73 1028.76 1029.20 1029.63 1029.81 1029.76 1029.48 1029.40 1029.23 1028.87 1028.74 1028.61 1028.44 1028.26 1027.90 1027.65 1027.41 1028.50 1025.57 1027.51 1024.80 1026.19 1026.08 1025.19 1024.94 1024.74 1024.31 1024.51 1023.64 1022.85 1022.62 1022.58 1022.41 1022.19 1021.95 1021.87
1025.86 1026.42 1026.74 1027.42 1028.88 1029.13 1029.45 1029.80 1029.58 1029.24 1029.98 1030.00 1029.91 1030.10 1030.40 1030.39 1030.05 1029.81 1029.72 1029.60 1029.34 1029.10 1028.84 1028.39 1028.04 1028.16 1028.03 1027.70 1026.36 1027.10 1026.87 1025.70 1026.43 1025.16 1024.51 1025.81 1024.59 1023.80 1023.30 1023.23 1022.99 1022.78 1022.55 1022.41
1026.77 1026.33 1026.62 1028.52 1029.29 1029.67 1029.78 1030.14 1030.22 1030.18 1030.35 1030.39 1030.34 1030.44 1030.68 1030.72 1030.63 1030.53 1030.47 1030.33 1030.19 1029.88 1029.60 1029.45 1029.29 1028.81 1028.06 1028.00 1027.42 1026.69 1027.62 1027.07 1026.82 1026.11 1025.47 1025.66 1025.14 1024.48 1024.41 1023.88 1023.47 1023.10 1022.89 1022.78
1027.67 1026.80 1027.80 1028.66 1029.61 1030.23 1030.24 1030.33 1030.67 1030.66 1030.54 1030.55 1030.45 1030.46 1030.53 1030.89 1030.86 1030.69 1030.66 1030.71 1030.63 1030.46 1029.98 1029.59 1029.33 1029.19 1028.66 1028.01 1027.65 1027.75 1027.80 1027.35 1026.98 1026.85 1027.31 1026.40 1025.35 1025.41 1024.91 1024.45 1023.88 1023.48 1023.21 1022.98
1028.33 1027.80 1027.64 1029.20 1030.12 1030.76 1030.90 1030.37 1031.00 1031.11 1031.02 1030.99 1030.56 1030.02 1030.54 1030.94 1030.94 1030.96 1030.80 1030.65 1030.60 1030.56 1030.22 1029.89 1029.70 1029.44 1029.05 1028.94 1029.00 1028.98 1028.42 1027.92 1027.36 1026.94 1026.71 1026.73 1025.42 1025.84 1025.00 1024.79 1024.18 1023.82 1023.49 1023.12
1028.56 1028.27 1028.77 1029.84 1030.50 1030.95 1031.06 1031.78 1031.40 1031.57 1031.56 1031.55 1031.31 1031.43 1031.36 1031.21 1031.20 1031.22 1031.21 1031.11 1030.78 1030.38 1030.33 1030.33 1030.25 1029.93 1029.56 1029.37 1029.44 1029.32 1028.92 1028.43 1027.83 1027.55 1027.32 1026.69 1026.34 1026.06 1025.23 1025.11 1024.50 1023.99 1023.61 1023.43
1029.35 1029.03 1029.31 1030.46 1030.87 1031.43 1031.77 1031.75 1031.93 1032.05 1032.08 1032.13 1032.08 1031.78 1031.70 1031.58 1031.55 1031.59 1031.48 1031.31 1031.23 1030.89 1030.87 1030.79 1030.60 1030.16 1029.93 1029.68 1029.67 1029.42 1029.14 1028.65 1028.24 1027.80 1027.27 1026.83 1026.66 1025.89 1025.49 1024.84 1024.35 1023.97 1023.49 1023.39
1031.58 1029.99 1030.34 1030.91 1031.35 1031.78 1032.25 1032.41 1032.30 1032.63 1032.72 1032.73 1032.59 1032.23 1032.02 1032.07 1032.06 1031.95 1031.52 1031.32 1031.30 1031.05 1031.05 1030.82 1030.72 1030.63 1030.48 1030.19 1029.84 1029.54 1029.07 1028.59 1028.15 1027.71 1027.20 1026.96 1026.53 1026.03 1025.55 1025.08 1024.66 1024.31 1024.14 1024.00
1032.01 1030.66 1030.71 1031.10 1031.68 1032.25 1032.68 1032.86 1032.90 1033.16 1033.38 1033.40 1033.25 1032.88 1032.56 1032.64 1032.58 1032.38 1032.13 1032.01 1031.84 1031.69 1031.37 1031.01 1030.87 1030.94 1030.69 1030.34 1030.07 1029.84 1029.35 1028.84 1028.43 1027.85 1027.37 1027.07 1026.68 1026.41 1026.15 1025.76 1025.53 1025.30 1025.06 1024.89
1031.36 1030.57 1030.95 1031.18 1031.73 1032.17 1032.79 1033.33 1033.60 1033.76 1033.84 1033.76 1033.67 1033.49 1033.40 1033.40 1033.10 1032.74 1032.59 1032.50 1032.50 1032.34 1031.98 1031.64 1031.40 1031.27 1031.02 1030.86 1030.62 1030.16 1029.74 1029.04 1028.69 1028.28 1027.89 1027.46 1027.13 1026.86 1026.69 1026.48 1026.46 1026.29 1026.00 1025.78
1030.76 1030.95 1031.20 1031.29 1031.82 1032.52 1033.08 1033.42 1033.72 1034.00 1033.97 1033.96 1034.12 1034.23 1034.25 1033.93 1033.50 1033.28 1032.90 1032.69 1032.70 1032.59 1032.39 1032.10 1031.88 1031.63 1031.35 1031.17 1031.01 1030.61 1030.18 1029.53 1028.94 1028.61 1028.31 1027.83 1027.56 1027.05 1026.49 1026.64 1026.62 1026.55 1026.30 1026.17
1031.18 1031.73 1031.90 1031.95 1032.42 1032.67 1033.04 1033.29 1033.48 1033.79 1033.92 1033.95 1033.83 1033.86 1033.84 1033.61 1033.27 1033.02 1032.72 1032.79 1032.68 1032.40 1032.29 1032.17 1031.89 1031.70 1031.43 1031.20 1031.05 1030.72 1030.33 1029.84 1029.32 1028.87 1028.61 1028.40 1028.06 1027.49 1026.92 1026.40 1026.21 1026.23 1026.27 1026.23
1031.44 1032.29 1032.34 1032.16 1032.13 1032.38 1032.81 1033.08 1033.29 1033.47 1033.64 1033.58 1033.47 1033.42 1033.39 1033.24 1032.99 1032.94 1032.70 1032.43 1032.38 1032.33 1032.06 1031.74 1031.62 1031.42 1031.33 1031.14 1031.01 1030.92 1030.69 1030.18 1029.67 1029.24 1028.83 1028.82 1028.49 1028.17 1027.59 1027.00 1026.68 1026.35 1026.20 1026.14
1031.37 1032.02 1031.77 1032.34 1032.49 1032.54 1032.67 1032.81 1032.83 1032.62 1032.44 1032.40 1032.42 1032.54 1032.64 1032.58 1032.38 1032.03 1031.82 1031.78 1031.75 1031.69 1031.54 1031.48 1031.27 1031.01 1030.90 1030.94 1030.88 1030.67 1030.54 1030.12 1029.80 1029.44 1029.15 1029.13 1028.77 1028.36 1027.95 1027.63 1027.22 1027.02 1026.54 1026.22
1030.88 1031.33 1031.68 1031.79 1031.47 1031.57 1031.69 1031.68 1031.61 1031.10 1031.05 1030.89 1030.89 1030.86 1030.82 1031.10 1031.23 1031.20 1031.11 1031.04 1031.14 1030.77 1030.49 1030.59 1030.52 1030.42 1030.40 1030.46 1030.51 1030.33 1030.16 1029.71 1029.30 1029.11 1028.97 1029.19 1028.90 1028.69 1028.23 1027.89 1027.75 1027.53 1027.08 1026.70
1030.49 1030.17 1030.17 1030.21 1030.14 1029.90 1029.65 1029.61 1029.69 1029.54 1029.42 1029.32 1029.30 1029.30 1029.49 1029.68 1029.80 1029.80 1029.89 1029.99 1030.00 1030.03 1030.13 1030.02 1029.81 1029.84 1029.76 1029.76 1029.95 1029.87 1029.60 1029.32 1029.04 1029.05 1028.85 1028.84 1028.76 1028.78 1028.45 1028.31 1028.01 1027.70 1027.42 1027.08
1029.79 1029.63 1029.52 1029.34 1029.11 1028.82 1028.41 1028.16 1028.20 1028.18 1028.16 1028.18 1028.36 1028.60 1028.74 1028.91 1028.96 1029.02 1029.09 1029.17 1029.20 1029.25 1029.26 1029.19 1029.12 1029.05 1028.98 1029.03 1029.09 1028.98 1028.83 1028.67 1028.55 1028.52 1028.53 1028.69 1028.76 1028.69 1028.48 1028.54 1028.37 1027.66 1027.50 1027.41
1029.13 1029.01 1028.82 1028.56 1028.33 1028.14 1027.96 1027.73 1027.54 1027.42 1027.48 1027.60 1027.85 1028.06 1028.15 1028.27 1028.42 1028.53 1028.62 1028.74 1028.72 1028.60 1028.39 1028.37 1028.60 1028.60 1028.54 1028.37 1028.24 1028.42 1028.33 1028.13 1028.02 1028.02 1028.10 1028.18 1028.31 1028.42 1028.43 1028.29 1027.97 1027.82 1027.93 1027.41
1028.66 1028.58 1028.39 1028.14 1027.83 1027.70 1027.52 1027.35 1027.28 1027.29 1027.28 1027.44 1027.71 1027.89 1027.97 1028.05 1028.13 1028.19 1028.22 1028.16 1028.12 1028.06 1028.10 1028.10 1028.13 1028.16 1028.08 1028.01 1027.79 1027.77 1027.64 1027.50 1027.45 1027.45 1027.48 1027.63 1027.77 1027.73 1027.81 1027.69 1027.81 1027.72 1027.57 1027.35
1028.34 1028.33 1028.22 1027.99 1027.74 1027.57 1027.48 1027.38 1027.32 1027.27 1027.35 1027.63 1027.76 1027.77 1027.81 1027.85 1027.98 1028.03 1028.01 1027.77 1027.51 1027.44 1027.57 1027.54 1027.43 1027.37 1027.22 1027.13 1027.07 1027.06 1026.97 1026.87 1026.84 1026.85 1026.93 1026.98 1027.09 1027.18 1027.35 1027.42 1027.52 1027.54 1027.21 1027.31
1028.35 1028.45 1028.38 1028.14 1027.93 1027.78 1027.87 1027.92 1027.85 1027.75 1027.70 1027.75 1027.85 1027.95 1027.97 1027.91 1027.87 1027.77 1027.68 1027.58 1027.38 1027.29 1027.17 1027.03 1026.85 1026.74 1026.67 1026.52 1026.38 1026.27 1026.16 1026.06 1026.06 1026.13 1026.24 1026.37 1026.47 1026.52 1026.55 1026.60 1026.70 1026.70 1026.76 1026.97
1028.44 1028.47 1028.34 1028.23 1028.20 1028.22 1028.21 1028.13 1028.14 1028.07 1027.92 1027.87 1027.89 1027.93 1027.92 1027.81 1027.70 1027.54 1027.24 1027.06 1026.97 1026.99 1026.81 1026.60 1026.35 1026.04 1025.83 1025.73 1025.75 1025.71 1025.63 1025.55 1025.50 1025.40 1025.49 1025.60 1025.74 1025.92 1026.06 1026.18 1026.32 1026.46 1026.65 1026.64
1028.07 1028.16 1028.26 1028.31 1028.40 1028.30 1028.16 1027.99 1028.19 1028.15 1028.06 1027.98 1027.94 1027.92 1027.89 1027.68 1027.39 1027.20 1027.12 1026.99 1026.83 1026.63 1026.50 1026.28 1026.00 1025.66 1025.39 1025.35 1025.47 1025.59 1025.59 1025.49 1025.43 1025.41 1025.41 1025.27 1025.43 1025.57 1025.71 1025.79 1025.88 1025.94 1025.94 1025.93
1027.90 1028.13 1028.30 1028.39 1028.29 1028.09 1028.15 1028.12 1028.12 1027.94 1027.82 1027.73 1027.64 1027.55 1027.49 1027.43 1027.37 1027.11 1027.05 1026.93 1026.69 1026.42 1026.31 1026.04 1025.58 1025.32 1025.38 1025.57 1025.56 1025.46 1025.40 1025.33 1025.23 1025.10 1024.97 1024.93 1024.94 1025.00 1025.01 1025.03 1025.09 1025.19 1025.22 1025.26
1027.79 1027.86 1027.95 1028.10 1028.16 1028.21 1028.21 1028.20 1027.97 1027.70 1027.56 1027.42 1027.27 1027.18 1027.13 1027.06 1027.00 1026.80 1026.69 1026.58 1026.36 1026.11 1025.85 1025.75 1025.69 1025.64 1025.49 1025.29 1025.14 1025.02 1024.92 1024.83 1024.70 1024.60 1024.47 1024.42 1024.31 1024.19 1024.15 1024.18 1024.26 1024.29 1024.36 1024.41
1027.71 1027.74 1027.78 1028.01 1028.12 1028.16 1028.17 1028.07 1027.68 1027.64 1027.59 1027.51 1027.33 1027.18 1026.89 1026.68 1026.68 1026.48 1026.30 1026.20 1026.10 1025.96 1025.79 1025.61 1025.44 1025.26 1025.08 1024.93 1024.74 1024.60 1024.48 1024.34 1024.16 1024.06 1024.02 1023.94 1023.87 1023.80 1023.70 1023.60 1023.52 1023.58 1023.64 1023.75
Wind_Speed
2 5 5 8 14 13 12 10 7 8 10 9 9 10 12 12 12 13 14 14 14 12 11 7 12 12 9 15 10 13 11 12 12 12 11 9 9 8 7 6 5 4 2 2
12 6 6 6 10 12 8 9 6 5 6 6 7 7 10 12 12 13 13 13 13 13 14 13 13 8 14 11 13 11 11 11 12 10 10 11 10 8 7 7 7 5 3 3
4 0 6 6 7 8 5 7 7 5 5 7 6 6 8 9 10 11 12 12 13 13 12 13 13 11 10 10 12 7 10 11 11 10 12 10 9 9 8 7 6 5 5 4
8 8 4 6 3 5 4 4 6 4 5 6 7 4 4 6 8 8 9 10 11 11 11 10 10 11 10 9 9 11 9 10 9 11 11 9 8 9 8 7 6 5 5 5
4 8 4 5 4 5 6 3 3 5 6 6 7 6 3 5 6 7 7 6 7 9 9 9 10 10 9 10 10 10 11 10 10 9 7 9 9 8 8 7 6 6 6 6
6 5 4 6 5 2 3 4 2 4 5 7 9 5 6 7 6 6 7 7 6 7 9 9 10 10 9 8 9 10 10 10 10 9 9 8 9 9 7 7 7 6 6 6
7 5 5 4 3 1 6 6 2 3 4 6 5 5 8 7 7 6 6 7 8 7 6 8 9 9 9 8 9 10 10 9 8 8 8 7 8 7 6 7 6 6 5 5
5 4 2 2 2 4 4 3 2 2 3 4 6 6 6 7 7 7 6 6 6 5 6 7 8 8 9 9 9 10 10 9 8 8 6 6 8 7 7 6 6 6 6 3
4 5 2 2 3 1 0 3 4 3 3 4 7 5 5 6 6 6 6 7 7 6 6 5 6 7 8 9 10 10 10 10 9 9 7 8 7 8 6 6 5 5 5 6
4 1 4 3 4 5 6 7 3 3 4 5 6 6 6 6 5 5 5 5 6 7 6 6 6 7 7 8 9 9 9 9 9 9 9 8 6 6 6 5 5 5 5 5
7 11 6 9 8 6 7 6 5 5 5 6 5 7 7 6 6 5 5 4 4 5 6 7 6 6 7 7 8 8 9 8 7 7 8 7 6 6 5 5 5 5 5 5
5 0 4 6 3 4 5 7 8 7 6 7 7 7 6 7 5 5 5 5 5 5 6 5 6 6 6 6 7 7 7 6 6 6 7 6 7 6 6 4 8 8 8 6
3 2 3 3 4 5 6 7 6 6 6 5 5 6 7 6 5 6 5 5 6 6 5 5 6 6 6 5 5 6 6 7 7 6 6 7 7 6 7 7 9 5 5 7
3 1 5 9 4 1 6 2 2 2 5 6 7 6 6 6 7 6 7 7 5 5 6 5 6 6 5 5 4 5 6 9 6 6 5 6 6 7 6 6 7 6 8 8
7 9 5 2 4 4 3 1 5 7 6 6 8 8 7 8 9 9 7 6 5 5 6 6 6 7 4 4 5 5 6 6 4 6 4 6 6 6 6 6 6 6 7 8
1 5 6 9 10 8 9 8 10 10 8 8 8 8 8 9 8 7 7 6 5 7 4 5 6 6 4 4 5 5 6 12 9 6 4 4 5 5 6 5 6 6 6 6
4 5 6 9 10 11 12 12 12 12 9 9 9 8 7 7 7 7 6 5 6 6 6 6 7 6 4 5 5 5 5 5 9 6 4 4 4 5 5 5 5 5 6 7
9 9 9 11 11 11 11 10 10 11 11 10 8 8 8 8 9 8 6 5 5 6 6 7 6 7 6 6 6 6 5 6 5 5 5 4 4 5 4 5 5 5 5 7
6 9 10 10 10 10 10 10 10 10 10 9 8 9 8 8 8 8 7 7 7 8 7 4 7 8 7 8 9 6 7 7 6 6 5 7 5 4 4 4 4 5 5 6
5 6 8 9 8 8 9 8 8 8 8 6 6 6 8 8 8 8 8 9 9 7 9 9 7 7 7 9 11 6 7 8 7 6 5 6 6 5 4 6 6 5 5 6
5 6 7 7 7 7 6 6 5 5 2 3 5 7 7 7 7 7 8 8 9 7 7 11 8 6 6 7 8 6 7 7 7 6 7 6 6 6 5 5 5 5 5 5
3 5 6 6 5 4 3 4 4 4 4 5 6 6 7 8 8 9 9 9 6 12 7 6 6 9 8 14 7 8 8 9 8 7 6 7 6 6 5 4 4 4 4 5
3 4 5 6 5 6 6 5 4 4 5 5 6 6 7 6 6 7 8 7 5 8 7 7 12 15 15 9 3 4 4 4 5 5 5 6 6 6 5 5 5 5 5 5
4 4 5 4 5 6 5 4 4 6 6 6 7 6 6 6 6 5 6 10 13 11 8 8 11 15 16 6 3 3 4 4 4 5 5 9 5 6 6 6 6 6 5 7
3 4 4 4 4 4 4 5 5 6 5 6 6 7 6 5 6 6 6 7 12 11 8 13 17 16 7 4 5 5 5 6 6 6 7 7 7 7 7 7 6 6 7 6
4 3 3 4 3 4 4 4 5 5 4 6 6 5 5 5 5 6 6 9 8 11 7 6 5 7 7 7 7 7 6 7 8 7 9 7 7 7 8 7 7 6 5 5
3 5 3 3 3 3 4 5 6 6 6 6 6 7 7 5 6 8 9 7 7 7 6 6 6 8 7 7 7 7 7 7 10 7 8 8 7 7 8 8 7 6 6 6
Wind_Direction
284 242 310 4 10 20 21 11 359 83 70 40 34 28 24 26 29 35 33 34 29 28 30 3 26 31 343 26 358 22 23 21 24 17 20 359 29 33 22 22 16 1 349 302
275 213 246 297 15 16 15 0 84 111 76 17 31 40 29 25 21 25 24 22 24 23 19 22 27 356 19 352 23 13 21 27 19 16 17 0 4 22 26 16 14 357 329 299
308 136 289 202 18 2 33 20 342 5 16 344 8 11 21 12 17 17 14 12 13 16 18 14 10 14 14 7 20 11 13 29 8 14 19 352 354 10 19 10 358 358 349 345
301 293 234 72 45 317 331 29 15 6 359 342 334 340 349 9 0 11 7 5 3 3 4 11 13 5 1 16 20 25 14 25 12 14 11 356 355 12 0 358 349 344 346 339
295 311 107 150 41 351 342 99 24 344 350 345 331 300 189 24 356 353 356 4 352 350 352 355 7 6 1 12 17 20 8 10 12 23 356 344 7 357 354 344 345 344 334 326
329 301 324 41 26 4 268 193 31 337 346 343 328 289 73 358 346 344 344 353 354 350 344 358 1 358 1 11 18 13 2 357 355 2 359 351 2 340 346 336 331 328 320 318
319 314 115 56 0 300 247 65 360 337 340 338 342 355 331 332 330 341 337 341 344 347 351 352 354 353 358 3 11 358 351 350 356 356 346 347 349 327 344 329 327 319 309 320
300 268 231 35 211 274 20 337 328 313 321 320 320 326 326 326 329 327 333 335 346 348 348 344 352 353 352 2 353 351 346 346 349 351 346 356 336 343 340 342 335 329 322 333
292 346 51 279 273 292 229 297 303 308 313 313 301 306 325 318 324 325 331 334 337 341 337 349 357 355 345 349 349 345 342 346 348 345 352 353 346 350 344 342 346 345 348 339
321 123 244 254 219 238 212 238 291 283 285 282 281 294 306 306 314 316 327 326 328 325 331 341 352 345 344 340 345 339 339 343 345 343 352 351 348 348 341 346 348 350 343 334
251 268 272 241 233 231 208 225 245 255 254 270 279 282 284 283 286 297 297 301 309 307 317 322 331 332 337 338 335 335 331 337 343 344 352 340 349 340 332 331 350 328 318 319
298 88 253 289 137 154 189 213 221 225 251 237 234 237 254 266 280 279 285 294 287 290 293 300 312 313 318 326 325 322 321 335 336 343 338 343 339 330 333 306 315 312 308 320
254 33 284 298 270 217 230 221 216 202 222 247 237 235 257 259 253 264 263 254 259 268 263 276 287 290 297 303 312 310 316 323 324 337 336 340 330 331 332 331 325 297 304 318
188 126 267 209 240 164 209 207 286 250 225 229 237 244 244 254 276 263 257 254 247 246 262 263 268 267 272 272 279 288 291 300 304 310 327 331 328 323 322 325 329 327 331 323
223 210 265 320 287 242 202 227 250 253 239 228 206 218 212 232 247 255 256 240 241 249 250 245 253 260 232 231 256 264 269 275 301 290 310 317 316 316 316 323 322 320 326 328
267 216 241 240 261 247 227 235 240 253 248 245 240 233 224 220 226 236 248 244 236 266 261 228 247 251 204 202 240 256 246 254 265 288 297 303 311 312 308 325 320 317 320 331
276 283 258 258 259 261 245 240 234 246 243 236 243 256 260 259 262 263 257 250 260 235 249 258 262 269 252 225 228 251 256 259 257 264 272 283 299 295 311 311 307 311 313 319
249 277 283 280 282 285 281 267 247 243 242 246 250 252 257 262 269 279 281 279 273 276 261 259 262 267 265 261 255 257 248 253 253 256 260 255 268 273 304 288 295 302 307 310
267 284 290 291 288 279 275 272 268 264 257 251 246 245 254 266 275 279 284 281 272 273 271 231 255 269 267 260 246 241 248 252 250 246 241 250 264 263 263 273 286 300 297 298
292 296 297 298 301 291 285 281 272 262 259 250 238 247 260 267 274 278 276 270 275 284 290 280 268 254 250 247 260 251 251 252 249 254 249 237 241 247 261 273 281 283 292 296
302 307 303 306 307 305 295 298 281 267 244 233 255 264 273 283 281 281 279 274 278 281 274 268 262 263 268 265 263 258 253 249 246 242 243 246 256 248 243 248 259 270 278 284
308 308 310 304 319 323 357 331 319 299 280 273 272 273 276 276 274 269 265 267 283 286 283 274 269 262 252 256 247 239 236 235 233 234 237 238 245 242 247 253 259 269 276 277
248 259 284 300 306 306 309 295 295 292 285 282 279 277 275 280 290 288 283 287 289 283 277 273 271 270 271 275 275 297 295 286 279 263 234 231 231 234 239 246 250 255 254 258
259 276 289 300 303 284 279 287 288 287 282 281 274 271 277 282 277 268 274 284 292 294 284 278 279 282 280 290 248 274 280 275 266 260 258 249 230 229 231 238 248 254 257 270
257 276 271 266 269 272 299 295 292 272 264 272 273 273 271 268 270 288 293 282 285 293 292 282 281 285 305 306 277 269 264 265 264 259 252 245 243 242 243 242 242 242 244 244
246 264 276 274 283 298 298 296 286 288 294 289 302 297 289 279 273 275 288 285 276 278 287 295 291 277 270 271 266 263 263 264 266 272 268 264 261 249 241 239 245 247 255 253
237 257 246 253 254 272 285 278 300 308 306 298 299 294 278 283 286 286 288 290 286 281 279 277 274 275 267 261 259 254 252 252 254 248 245 250 250 255 259 256 247 241 243 238